Regional Weather Roundup
Issued by NWS Mobile, AL

Home | Current Version | Previous Version | Text Only | Print | Product List | Glossary On
Versions: 1 2 3 4 5 6 7 8 9 10 11 12 13 14 15 16 17 18 19 20 21 22 23 24 25 26 27 28 29 30 31 32 33 34 35 36 37 38 39 40 41 42 43 44 45 46 47 48 49 50
099
ASUS44 KMOB 250112
RWRMOB
REGIONAL WEATHER ROUNDUP
NATIONAL WEATHER SERVICE MOBILE AL
800 PM CDT SAT SEP 24 2016

NOTE: "FAIR" INDICATES FEW OR NO CLOUDS BELOW 12,000 FEET WITH NO
      SIGNIFICANT WEATHER AND/OR OBSTRUCTIONS TO VISIBILITY.

  * THESE STATIONS ARE PART OF THE UNIVERSITY OF SOUTH ALABAMA
    MESONET AND ARE NOT UNDER NWS OR FAA QUALITY CONTROL.

ALZ061>064-250200-
COASTAL ALABAMA

CITY           SKY/WX    TMP DP  RH WIND       PRES   REMARKS
MOBILE REG APT PTCLDY    79  71  76 CALM      30.00R
BROOKLEY FIELD CLEAR     82  72  71 W5        30.00R
USA CAMPUS*    NOT AVBL
DOG RIVER*     NOT AVBL


CITY           SKY/WX    TMP DP  RH WIND       PRES   REMARKS
MOUNT VERNON*  NOT AVBL
SARALAND*      NOT AVBL
BAY MINETTE*   NOT AVBL
LOXLEY*        NOT AVBL
ROBERTSDALE*   NOT AVBL
FAIRHOPE*      NOT AVBL
ELBERTA*       NOT AVBL
FOLEY*         NOT AVBL
GRAND BAY*     NOT AVBL
DAUPHIN ISLND* NOT AVBL
BON SCOUR NWR* NOT AVBL
GULF SHORES    CLEAR     80  77  91 CALM      29.99R

$$

ALZ051>060-250200-
INTERIOR SOUTHWEST AND SOUTH CENTRAL ALABAMA

CITY           SKY/WX    TMP DP  RH WIND       PRES   REMARKS
GREENVILLE     NOT AVBL
EVERGREEN      NOT AVBL
CASTLEBERRY*   NOT AVBL
ATMORE*        NOT AVBL
DIXIE*         NOT AVBL
ANDALUSIA/OPP  CLEAR     79  69  71 W3        30.00R
ANDALUSIA*     NOT AVBL
FLORALA APT    NOT AVBL
FLORALA*       NOT AVBL

$$

FLZ001>006-250200-
WESTERN FLORIDA PANHANDLE

CITY           SKY/WX    TMP DP  RH WIND       PRES   REMARKS
PENSACOLA      CLOUDY    81  71  71 CALM      29.99S
NAS PENSACOLA  PTCLDY    80  73  79 CALM      29.98S
MILTON         PTCLDY    74  74 100 N3        29.99R
WHTNG S FIELD  PTCLDY    77  74  90 CALM      29.99R


CITY           SKY/WX    TMP DP  RH WIND       PRES   REMARKS
WALNUT HILL*   NOT AVBL
JAY*           NOT AVBL
DUKE FIELD     CLOUDY    76  71  83 CALM      29.98R
CRESTVIEW      PTCLDY    75  69  81 CALM      30.00S
VALPARAISO     PTCLDY    78  69  72 CALM      29.98S
DESTIN         MOCLDY    82  71  69 CALM      29.98S

$$

MSZ076-079-250200-
INTERIOR SOUTHEAST MISSISSIPPI

CITY           SKY/WX    TMP DP  RH WIND       PRES   REMARKS
LEAKESVILLE*   NOT AVBL
AGRICOLA*      NOT AVBL

$$

MARINE OBSERVATIONS

STATION/POSITION TIME  TEMP    WIND        PRES    WAVE
                       AIR SEA DIR/SP/G            HT/PER
                 (UTC) (F)     (DEG/KT/KT) (MB)    (FT/S)
PASCAGOULA       0000   87     250/  5/  6 1015.1F
PETIT BOIS ISLND 0000   86     250/  9/ 10 1015.9F
GRAND BAY        2300   87     250/  5     1016.0S
KATRINA CUT      0000   86     270/  6     1015.9S
CEDAR POINT      0000   86     260/  7     1015.2S
E DAUPHIN ISLAND 0000   85     250/  5/  6 1014.9F
MIDDLE BAY LIGHT 0000   86     240/ 11     1014.9F
USCG MOBILE BAY  0000   85 86  280/  4/  9 1015.7F
STATE DOCKS      0000   87 88              1015.0F
MEAHER PARK      0000   87     250/  7     1014.9S
WEEKS BAY        2300   89                   N/A
FORT MORGAN      0000   86     270/  8/  8 1014.7F
12 S ORANGE BCH  0050   85 86  260/  4/  6 1015.7R   1
PENSACOLA BAY    0000   85 87  360/  5/  7 1015.6R
64 S DAUPHIN ISL 0000   83 86  230/  4/  4 1015.3F
67 S FORT MORGAN 0030   83     310/  2     1015.6S

$$

SELECTED LOCATIONS ACROSS THE REGION

CITY           SKY/WX    TMP DP  RH WIND       PRES   REMARKS
NEW ORLEANS    PTCLDY    81  75  82 CALM      30.00S
GULFPORT       CLEAR     82  73  74 W3        29.98S
PASCAGOULA AP  CLEAR     75  75 100 CALM      29.99R
PASCAGOULA*    NOT AVBL
HATTIESBURG    CLEAR     83  73  72 CALM      29.99S
LAUREL         CLEAR     81  70  69 CALM      30.01R
MERIDIAN       CLEAR     78  69  73 CALM      29.99S
JACKSON        PTCLDY    80  70  71 CALM      29.99S
MONTGOMERY     CLEAR     79  65  62 SW3       29.99S
TROY           CLOUDY    75  68  78 NE6       30.02R
KINSTON*       NOT AVBL
GENEVA*        NOT AVBL
ASHFORD*       NOT AVBL
DOTHAN         MOCLDY    80  70  71 E6        30.03R
PANAMA CITY    NOT AVBL

$$





USA.gov is the U.S. government's official web portal to all federal, state and local government web resources and services.